ラインムート第2彗星

44P/Reinmuth 2 (2022)

English version
Home page
Updated on July 31, 2021

---------------------------------------------------------------------

・ プロフィール

・ 軌道要素

Epoch 2021 July 5.0 TT = JDT 2459400.5
T 2022 Apr. 23.45616 TT                                 Rudenko
q   2.1124360            (2000.0)            P               Q
n   0.13909587     Peri.   58.13548     +0.95985727     +0.26260875
a   3.6891522      Node   286.48041     -0.27928524     +0.86230058
e   0.4273925      Incl.    5.89839     -0.02595735     +0.43298309
P   7.09
From 879 observations 2008 July 2-2021 June 20, mean residual 0".7.
     Nongravitational parameters A1 = +0.11, A2 = -0.0625.

・ 星図

・ 光度変化

        m1 = 10.6 + 5 logΔ + 13.0 log r  [ ,0]  (              〜2022年 4月23日)
        m1 = 11.6 + 5 logΔ + 10.0 log r  [0, ]  (2022年 4月23日〜              )

---------------------------------------------------------------------

軌道要素はM.P.E.C. 2021-N06に掲載されたものです。
星図はステラナビゲータ Ver.10 (アストロアーツ) で作成したものです。
光度グラフはComet for Windowsで作成したものです。

---------------------------------------------------------------------

Copyright(C) Seiichi Yoshida (comet@aerith.net). All rights reserved.